Tracking 30918 objects as of 2-Jul-2025
HD Live streaming from Space Station
objects crossing your sky now

STARLINK-5916

Track STARLINK-5916 now!
10-day predictions
STARLINK-5916 is classified as:


NORAD ID: 55988
Int'l Code: 2023-042C
Perigee: 565.3 km
Apogee: 567.1 km
Inclination: 43.0 °
Period: 95.8 minutes
Semi major axis: 6937 km
RCS: Unknown
Launch date: March 24, 2022
Source: United States (US)
Launch site: AIR FORCE EASTERN TEST RANGE (AFETR)
Your satellite tracking list
SL-12 R/B(2)
Track 1 satellite(s)




NASA's NSSDC Master Catalog

Two Line Element Set (TLE):
1 55988U 23042C   25182.41382565  .00001022  00000-0  90729-4 0  9994
2 55988  43.0050 341.3422 0001301 266.6357  93.4336 15.02534793125115
Source of the keplerian elements: AFSPC